This demonstration page uses our WeatherBlox Daily Observations layout. Learn more.

Left ArrowRight Arrow

39.12711, -84.51439

Hourly Observations for June 28, 2016

Temp ( °F °C ) Dew Point ( °F °C ) Humidity (%) Winds ( mph kmh ) Pressure ( in mb ) Visibility ( mi km ) Precip ( " mm )
12:53 am 00:53 Clear 70 21.1 68 20 93 93 SW 5 7 30.00 1016 10 16 N/A
1:53 am 01:53 Clear 70 21.1 68 20 93 93 N N/A 29.99 1016 10 16 N/A
2:53 am 02:53 Clear 68 20 68 20 100 100 N N/A 29.99 1016 10 16 N/A
3:53 am 03:53 Clear 68 20 67 19.4 96 96 N N/A 29.99 1016 10 16 N/A
4:53 am 04:53 Clear 68 20 67 19.4 96 96 N N/A 29.99 1016 10 16 N/A
5:53 am 05:53 Clear 66 18.9 65 18.3 96 96 E 3 6 30.01 1016 10 16 N/A
6:53 am 06:53 Sunny 68 20 66 18.9 93 93 N N/A 30.03 1017 10 16 N/A
7:53 am 07:53 Sunny 73 22.8 66 18.9 79 79 NE 3 6 30.03 1017 10 16 N/A
8:53 am 08:53 Sunny 75 23.9 65 18.3 71 71 E 5 7 30.04 1017 10 16 N/A
9:53 am 09:53 Sunny 77 25 64 17.8 64 64 S 3 6 30.05 1018 10 16 N/A
10:53 am 10:53 Sunny 80 26.7 62 16.7 54 54 VRB 7 11 30.04 1017 10 16 N/A
11:53 am 11:53 Partly Cloudy 82 27.8 62 16.7 51 51 WNW 5 7 30.04 1017 10 16 N/A
12:53 pm 12:53 Partly Cloudy 83 28.3 61 16.1 48 48 NNW 8 13 30.03 1017 10 16 N/A
1:53 pm 13:53 Partly Cloudy 83 28.3 61 16.1 48 48 W 8 13 30.02 1017 10 16 N/A
2:53 pm 14:53 Sunny 84 28.9 59 15 43 43 NW 13 20 30.01 1016 10 16 N/A
3:53 pm 15:53 Partly Cloudy 84 28.9 61 16.1 46 46 WNW 9 15 30.00 1016 10 16 N/A
4:53 pm 16:53 Mostly Sunny 82 27.8 58 14.4 44 44 VRB 7 11 29.99 1016 10 16 N/A
5:53 pm 17:53 Partly Cloudy 82 27.8 59 15 46 46 NW 15 24 30.00 1016 10 16 N/A
6:53 pm 18:53 Partly Cloudy 79 26.1 59 15 50 50 NNW 12 19 29.99 1016 10 16 N/A
7:53 pm 19:53 Sunny 78 25.6 58 14.4 50 50 NNW 13 20 30.00 1016 10 16 N/A
8:53 pm 20:53 Mostly Cloudy 75 23.9 58 14.4 55 55 N 13 20 30.01 1016 10 16 N/A
9:53 pm 21:53 Clear 70 21.1 57 13.9 64 64 N 9 15 30.04 1017 10 16 N/A
10:53 pm 22:53 Clear 68 20 56 13.3 65 65 N 10 17 30.05 1018 10 16 N/A
11:53 pm 23:53 Clear 65 18.3 55 12.8 70 70 N 12 19 30.06 1018 10 16 N/A

Powered by AerisWeather